Погода Дивное

Погода Дивное : погода сейчас, прогноз погоды и архив. Всё, что Вы хотите узнать о погоде Дивное!

Хотите узнать прогноз погоды Дивное? Тогда Вам сюда: Погода Дивное

Поиск расширенной информации на нашем сайте:

Другие новости

Новости СМИ2

Главная страница сайта

Новости сайта

02.10.2013

Напоминаем, что на нашем новом сайте вы можете получить высокодетализированные прогнозы погоды по пунктам России, СНГ и мира (включающие важные для авиации метеовеличины, такие как направление и скорость ветра, видимость, явления погоды, количество и форма облачности, нижняя и верхняя граница облачности), а также ознакомиться с разнообразными материалами по авиационной метеорологии и подборкой полезных ссылок на эту тему.

Сайт Метеоцентр.Азия посвящён разработке технологий оптимизации авиаметеорологического обслуживания, включая проектирование и перспективное создание нескольких автоматизированных авиаметеорологических систем:
- система выпуска высокодетальных прогностических карт явлений погоды для нижнего воздушного пространства по России и ближнему зарубежью;
- система верификации прогнозов TAF (выпускаемых синоптиками официальных АМСГ РФ и ближнего зарубежья) и AUTOTAF (выпускаемых сайтом Метеоцентр.Азия) - выявление ошибок, онлайн-сопоставление с фактической погодой METAR, автоматическое внесение коррективов в прогнозы при резком отклонении фактической погоды от прогноза, подсчёт оправдываемости прогнозов по элементам и в целом;
- система обработки, анализа и отображения авиаметеорологической информации для применения провайдерами метеорологической информации.

Рекомендуем: Виза в испанию казань мультивизы оформление визы в казани www.travel-kzn.ru.

Погода Дивное - сегодня

Время (UTC), дата Ветер
(°,м/с) 
Видим.   Явления Облачность Т
(°С)
Тd
(°С)
f(%) Тe
(°С)
Pmin
(гПа)
dP
(гПа)
Po
(мм)
O2
(г/м3)
Тmin Tmax R s Состояние
почвы
18 19.06.17 тихо ()   4000 м  дымка  8/0 средняя 
[Ac trans]
+17.9 +15.1 84 +27  1010.3  0.3  750  280           
21 19.06.17 270 (З) 4000 м  дымка  ясно 
+15.7 +14.6 93 +25  1009.4  -1  749  282           
00 20.06.17 тихо ()   4000 м  местами туман поземный  10/0 средняя 
[Ac As]
+15.8 +13.8 88 +22  1009.2  -0.2  749  283           
03 20.06.17 тихо ()   4000 м  дымка  10/0 средняя 
[Ac As]
+17.7 +13.4 76 +24  1008.3  -0.8  749  281  +14.5         
06 20.06.17 060 (СВ) 10 км    10/4 1000 м кучево-дожд., средняя 
[Cb calv|Ac As]
+23.4 +13.2 53 +29  1007.8  -0.2  748  275           
09 20.06.17 150 (ЮВ) 10 км    10/4 1000 м кучево-дожд., средняя 
[Cb calv|Ac As]
+25 +11.7 43 +29  1007.6  0.1  748  274           
12 20.06.17 190 (Ю) 4{11}  10 км    10/3 1000 м кучево-дожд., средняя 
[Cb calv|Ac As]
+21.6 +13.4 60 +28  1008.4  0.7  749  277           
15 20.06.17 190 (Ю) 4000 м  дымка  10/4 600 м кучево-дожд., средняя 
[Cb calv|Ac As]
+17.7 +13.9 78 +25  1008.5  0.1  749  281    +26.1       
18 20.06.17 240 (ЮЗ) 4000 м  дымка  8/4 600 м кучево-дожд., средняя, верхняя 
[Cb calv|Ac trans|Ci fib]
+17.3 +13.2 77 +24  1008.9  0.4  749  281           
21 20.06.17 300 (СЗ) 4000 м  дымка  10/0 средняя 
[Ac As]
+17 +12.8 76 +23  1009.3  0.4  749  282           
00 21.06.17 340 (С) 4000 м  дымка  10/0 средняя 
[Ac As]
+16.7 +13 79 +23  1008.7  -0.6  749  282           
03 21.06.17 270 (З) 10 км    10/0 средняя 
[Ac As]
+17.9 +12.4 70 +24  1008.5  -0.2  749  281  +16.6        сухая 
06 21.06.17 240 (ЮЗ) 10 км  {ливн. осадки}  8/3 600 м кучево-дожд., средняя, верхняя 
[Cb calv|Ac trans|Ci sp]
+22.4 +15 63 +31  1008.1  -0.3  749  276           
09 21.06.17 210 (ЮЗ) 10 км    3/0 верхняя 
[Ci fib]
+28.1 +16.4 49 +39  1007.3  -0.5  748  270           
12 21.06.17 310 (СЗ) 6-12{12}  4000 м  гроза, ливневой дождь  10/5 600 м кучево-дожд., средняя 
[Cb cap|Ac As]
+19.8 +15.7 77 +30  1007.7  -0.1  748  278           
15 21.06.17 220 (ЮЗ) 10 км  {гроза, ливн. осадки}  6/0 средняя, верхняя 
[Ac trans|Ci sp]
+23.1 +16.5 66 +35  1006.6  -1  747  274    +30.5  11     
18 21.06.17 220 (ЮЗ) 10 км  {гроза, ливн. осадки}  10/3 600 м кучево-дожд., средняя 
[Cb calv|Ac As]
+19.3 +13.8 70 +27  1007.5  0.8  748  279           
21 21.06.17 210 (ЮЗ) 4000 м  дымка{ливн. осадки}  4/0 средняя 
[Ac trans]
+18 +14.2 78 +26  1007.7  0.2  748  280           
00 22.06.17 210 (ЮЗ) 4000 м  дымка{ливн. осадки}  ясно 
+16.3 +14.9 91 +26  1007.3  -0.4  748  281           
03 22.06.17 220 (ЮЗ) 4000 м  дымка  ясно 
+18.5 +14.5 78 +27  1007.3  0.1  748  279  +16.3    0.3    влажная 
06 22.06.17 260 (З) 4{10}  10 км    ясно 
+24 +15.3 58 +33  1007.9  0.7  748  274           
09 22.06.17 260 (З) 10 км    6/0 средняя 
[Ac trans]
+27.7 +15.9 49 +38  1007.3  -0.4  748  270           
12 22.06.17 290 (З) 7-14{16}  10 км  гроза без осадков  9/6 600 м кучево-дожд., средняя 
[Cb calv|Ac As]
+21.7 +14.6 64 +30  1007.4  -0.1  748  276           
15 22.06.17 240 (ЮЗ) 4000 м  дымка{гроза, ливн. осадки}  8/6 600 м кучево-дожд., средняя 
[Cb calv|Ac As]
+19.7 +17.2 85 +34  1009.5  750  278    +29     
18 22.06.17 260 (З) 2000 м  дымка{гроза, ливн. осадки}  4/0 средняя 
[Ac trans]
+18.5 +17.4 93 +32  1011.2  751  279           
Время (UTC), дата Ветер
(°,м/с) 
Видим.   Явления Облачность Т
(°С)
Тd
(°С)
f(%) Тe
(°С)
Pmin
(гПа)
dP
(гПа)
Po
(мм)
O2
(г/м3)
Тmin Tmax R s Состояние
почвы

Для получения пояснительной информации подведите курсор к названию столбца.

ПОГОДА Дивное - архив

Всё, что Вы хотите узнать о погоде Дивное - удобно и подробно!

Выберите нужную дату (начиная с 1 января 2015* года) и нажмите кнопку "Найти".
Будут отображены архивные сводки погоды по пункту Дивное, начиная с указанной даты.


Отображать данные в формате CSV (для использования в таблицах Excel)


Внимание! Наш архив погоды предназначен исключительно для личного некоммерческого использования в познавательных целях. Если Вам необходимы официальные справки о состоянии погоды (для производственных, юридических, коммерческих и т.п. целей), обращайтесь в органы Росгидромета.

*Примечание: данная дата относится к архиву по метеостанциям СССР (Россия, СНГ, Балтия).
Архив по метеостанциям Зарубежной Европы и Азии (кроме Китая) хранится 10 дней, по другим регионам земного шара (Китай, Африка, Америка, Австралия, Океания) - 1 день.

Дивное - район местоположения метеостанции


Название, широта, долгота, высота метеостанции:
Дивное 45.9°ш. 43.3°д. 87 м над ур. моря [Российская Федерация]

Дополнительная информация

В oтличие oт бoльшинства пoгoдных сайтoв мы публикуем пoдрoбную метеoинфoрмацию в детальнoм прoфессиoнальнoм фoрмате.

Характеристики температуры и влажнoсти вoздуха измеряются на высoте 2 м в тени вдали oт зданий и деревьев.
Скoрoсть ветра измеряется на высoте 10 м (на урoвне рoста челoвека скoрoсть ветра ниже в 1.5-2 раза). Если метеoстанция нахoдится в гoрoде или в лесу, тo скoрoсть ветра занижена на 2-4 м/с пo сравнению с oткрытым местoм. Скoрoсть ветра над акватoриями крупных рек и oзёр, а также на вершинах хoлмoв на 2-5 м/с выше, чем в oбычных услoвиях.
Атмoсфернoе давление в разных тoчках местнoсти мoжет значительнo oтличаться oт давления на метеoстанции, в зависимoсти oт услoвий рельефа (при пoдъёме на 10 м давление пoнижается примернo на 1 мм рт.ст.).